Year,Month,Day,Hour,Minute,Value (Times are PST for windspeed in km/hr)
2010,11,16,05,18,16.30
2010,11,16,05,19,0.00
2010,11,16,05,20,6.20
2010,11,16,05,21,4.20
2010,11,16,05,22,2.80
2010,11,16,05,23,8.10
2010,11,16,05,24,2.20
2010,11,16,05,25,4.70
2010,11,16,05,26,8.50
2010,11,16,05,27,6.40
2010,11,16,05,28,2.30
2010,11,16,05,29,0.10
2010,11,16,05,30,0.00
2010,11,16,05,31,0.00
2010,11,16,05,32,0.10
2010,11,16,05,33,0.00
2010,11,16,05,34,2.70
2010,11,16,05,35,3.20
2010,11,16,05,36,2.80
2010,11,16,05,37,1.60
2010,11,16,05,38,10.00
2010,11,16,05,39,5.30
2010,11,16,05,40,4.40
2010,11,16,05,41,3.10
2010,11,16,05,42,4.10
2010,11,16,05,43,3.70
2010,11,16,05,44,4.00
2010,11,16,05,45,4.60
2010,11,16,05,46,0.80
2010,11,16,05,47,0.70
2010,11,16,05,48,2.70
2010,11,16,05,49,2.10
2010,11,16,05,50,4.40
2010,11,16,05,51,3.30
2010,11,16,05,52,5.10
2010,11,16,05,53,2.90
2010,11,16,05,54,4.20
2010,11,16,05,55,5.90
2010,11,16,05,56,7.60
2010,11,16,05,57,1.30
2010,11,16,05,58,0.40
2010,11,16,05,59,0.00
2010,11,16,06,00,3.00
2010,11,16,06,01,5.10
2010,11,16,06,02,8.00
2010,11,16,06,03,5.30
2010,11,16,06,04,7.30
2010,11,16,06,05,5.20
2010,11,16,06,06,8.00
2010,11,16,06,07,10.30
2010,11,16,06,08,6.50
2010,11,16,06,09,2.10
2010,11,16,06,10,0.90
2010,11,16,06,11,2.90
2010,11,16,06,12,3.80
2010,11,16,06,13,1.20
2010,11,16,06,14,0.60
2010,11,16,06,15,8.40
2010,11,16,06,16,8.10
2010,11,16,06,17,4.30
2010,11,16,06,18,3.60
2010,11,16,06,19,4.70
2010,11,16,06,20,3.00
2010,11,16,06,21,5.10
2010,11,16,06,22,5.50
2010,11,16,06,23,2.50
2010,11,16,06,24,3.10
2010,11,16,06,25,3.90
2010,11,16,06,26,5.20
2010,11,16,06,27,9.00
2010,11,16,06,28,4.90
2010,11,16,06,29,3.00
2010,11,16,06,30,5.30
2010,11,16,06,31,6.80
2010,11,16,06,32,3.60
2010,11,16,06,33,6.40
2010,11,16,06,34,6.70
2010,11,16,06,35,2.40
2010,11,16,06,36,3.70
2010,11,16,06,37,2.10
2010,11,16,06,38,2.60
2010,11,16,06,39,2.00
2010,11,16,06,40,8.00
2010,11,16,06,41,1.40
2010,11,16,06,42,0.20
2010,11,16,06,43,9.80
2010,11,16,06,44,4.50
2010,11,16,06,45,3.60
2010,11,16,06,46,2.30
2010,11,16,06,47,1.00
2010,11,16,06,48,4.80
2010,11,16,06,49,1.60
2010,11,16,06,50,3.00
2010,11,16,06,51,0.70
2010,11,16,06,52,1.10
2010,11,16,06,53,0.30
2010,11,16,06,54,0.00
2010,11,16,06,55,2.10
2010,11,16,06,56,6.60
2010,11,16,06,57,3.70
2010,11,16,06,58,2.00
2010,11,16,06,59,0.10
2010,11,16,07,00,1.90
2010,11,16,07,01,1.70
2010,11,16,07,02,0.20
2010,11,16,07,03,0.70
2010,11,16,07,04,0.50
2010,11,16,07,05,0.40
2010,11,16,07,06,0.10
2010,11,16,07,07,0.00
2010,11,16,07,08,0.00
2010,11,16,07,09,0.00
2010,11,16,07,10,0.80
2010,11,16,07,11,0.80
2010,11,16,07,12,1.70
2010,11,16,07,13,0.60
2010,11,16,07,14,0.10
2010,11,16,07,15,1.00
2010,11,16,07,16,0.80
2010,11,16,07,17,0.00
2010,11,16,07,18,1.80
2010,11,16,07,19,3.10
2010,11,16,07,20,2.10
2010,11,16,07,21,2.40
2010,11,16,07,22,0.00
2010,11,16,07,23,0.30
2010,11,16,07,24,0.50
2010,11,16,07,25,0.00
2010,11,16,07,26,1.80
2010,11,16,07,27,0.30
2010,11,16,07,28,0.10
2010,11,16,07,29,0.10
2010,11,16,07,30,0.30
2010,11,16,07,31,0.40
2010,11,16,07,32,0.00
2010,11,16,07,33,0.00
2010,11,16,07,34,0.00
2010,11,16,07,35,0.10
2010,11,16,07,36,0.20
2010,11,16,07,37,0.00
2010,11,16,07,38,0.10
2010,11,16,07,39,0.60
2010,11,16,07,40,1.70
2010,11,16,07,41,0.30
2010,11,16,07,42,0.00
2010,11,16,07,43,0.10
2010,11,16,07,44,0.00
2010,11,16,07,45,0.00
2010,11,16,07,46,0.00
2010,11,16,07,47,0.00
2010,11,16,07,48,0.00
2010,11,16,07,49,0.00
2010,11,16,07,50,0.00
2010,11,16,07,51,0.20
2010,11,16,07,52,0.30
2010,11,16,07,53,0.10
2010,11,16,07,54,0.10
2010,11,16,07,55,0.00
2010,11,16,07,56,0.00
2010,11,16,07,57,0.00
2010,11,16,07,58,0.00
2010,11,16,07,59,0.00
2010,11,16,08,00,0.00
2010,11,16,08,01,0.00
2010,11,16,08,02,0.00
2010,11,16,08,03,0.00
2010,11,16,08,04,0.00
2010,11,16,08,05,0.10
2010,11,16,08,06,0.00
2010,11,16,08,07,0.00
2010,11,16,08,08,0.00
2010,11,16,08,09,0.00
2010,11,16,08,10,0.00
2010,11,16,08,11,0.00
2010,11,16,08,12,0.00
2010,11,16,08,13,0.00
2010,11,16,08,14,0.00
2010,11,16,08,15,0.00
2010,11,16,08,16,0.00
2010,11,16,08,17,0.00
2010,11,16,08,18,0.00
2010,11,16,08,19,0.00
2010,11,16,08,20,0.00
2010,11,16,08,21,0.00
2010,11,16,08,22,0.00
2010,11,16,08,23,0.00
2010,11,16,08,24,0.00
2010,11,16,08,25,0.00
2010,11,16,08,26,0.00
2010,11,16,08,27,0.00
2010,11,16,08,28,0.00
2010,11,16,08,29,0.10
2010,11,16,08,30,0.10
2010,11,16,08,31,0.00
2010,11,16,08,32,0.00
2010,11,16,08,33,0.00
2010,11,16,08,34,0.00
2010,11,16,08,35,0.00
2010,11,16,08,36,0.20
2010,11,16,08,37,0.10
2010,11,16,08,38,0.00
2010,11,16,08,39,0.00
2010,11,16,08,40,0.20
2010,11,16,08,41,0.00
2010,11,16,08,42,0.00
2010,11,16,08,43,0.20
2010,11,16,08,44,0.00
2010,11,16,08,45,0.00
2010,11,16,08,46,0.00
2010,11,16,08,47,0.10
2010,11,16,08,48,0.20
2010,11,16,08,49,0.10
2010,11,16,08,50,0.00
2010,11,16,08,51,0.00
2010,11,16,08,52,0.00
2010,11,16,08,53,0.00
2010,11,16,08,54,0.00
2010,11,16,08,55,0.00
2010,11,16,08,56,0.00
2010,11,16,08,57,0.00
2010,11,16,08,58,0.00
2010,11,16,08,59,0.00
2010,11,16,09,00,0.00
2010,11,16,09,01,0.00
2010,11,16,09,02,0.00
2010,11,16,09,03,0.00
2010,11,16,09,04,0.00
2010,11,16,09,05,0.10
2010,11,16,09,06,0.00
2010,11,16,09,07,0.00
2010,11,16,09,08,0.00
2010,11,16,09,09,0.00
2010,11,16,09,10,0.00
2010,11,16,09,11,0.00
2010,11,16,09,12,0.30
2010,11,16,09,13,0.10
2010,11,16,09,14,0.20
2010,11,16,09,15,1.20
2010,11,16,09,16,0.90
2010,11,16,09,17,0.00
2010,11,16,09,18,0.00
2010,11,16,09,19,0.00
2010,11,16,09,20,0.20
2010,11,16,09,21,1.10
2010,11,16,09,22,0.40
2010,11,16,09,23,0.00
2010,11,16,09,24,0.00
2010,11,16,09,25,0.00
2010,11,16,09,26,0.00
2010,11,16,09,27,0.00
2010,11,16,09,28,0.00
2010,11,16,09,29,0.00
2010,11,16,09,30,0.10
2010,11,16,09,31,0.30
2010,11,16,09,32,0.20
2010,11,16,09,33,0.00
2010,11,16,09,34,0.10
2010,11,16,09,35,0.00
2010,11,16,09,36,0.00
2010,11,16,09,37,0.00
2010,11,16,09,38,0.00
2010,11,16,09,39,0.20
2010,11,16,09,40,1.10
2010,11,16,09,41,0.20
2010,11,16,09,42,0.00
2010,11,16,09,43,0.00
2010,11,16,09,44,0.00
2010,11,16,09,45,0.00
2010,11,16,09,46,0.00
2010,11,16,09,47,0.00
2010,11,16,09,48,0.00
2010,11,16,09,49,0.00
2010,11,16,09,50,0.00
2010,11,16,09,51,0.00
2010,11,16,09,52,0.00
2010,11,16,09,53,0.00
2010,11,16,09,54,0.00
2010,11,16,09,55,0.00
2010,11,16,09,56,0.00
2010,11,16,09,57,0.00
2010,11,16,09,58,0.00
2010,11,16,09,59,0.00
2010,11,16,10,00,0.00
2010,11,16,10,01,0.00
2010,11,16,10,02,0.00
2010,11,16,10,03,0.00
2010,11,16,10,04,0.00
2010,11,16,10,05,0.00
2010,11,16,10,06,0.00
2010,11,16,10,07,0.00
2010,11,16,10,08,0.00
2010,11,16,10,09,0.10
2010,11,16,10,10,0.00
2010,11,16,10,11,0.10
2010,11,16,10,12,0.10
2010,11,16,10,13,0.00
2010,11,16,10,14,0.00
2010,11,16,10,15,0.00
2010,11,16,10,16,0.40
2010,11,16,10,17,1.90
2010,11,16,10,18,0.20
2010,11,16,10,19,0.40
2010,11,16,10,20,0.70
2010,11,16,10,21,0.00
2010,11,16,10,22,0.00
2010,11,16,10,23,0.00
2010,11,16,10,24,0.20
2010,11,16,10,25,2.40
2010,11,16,10,26,0.80
2010,11,16,10,27,1.10
2010,11,16,10,28,0.40
2010,11,16,10,29,2.00
2010,11,16,10,30,1.60
2010,11,16,10,31,1.00
2010,11,16,10,32,0.00
2010,11,16,10,33,0.00
2010,11,16,10,34,2.00
2010,11,16,10,35,6.20
2010,11,16,10,36,7.10
2010,11,16,10,37,1.00
2010,11,16,10,38,1.30
2010,11,16,10,39,3.60
2010,11,16,10,40,4.30
2010,11,16,10,41,5.20
2010,11,16,10,42,3.80
2010,11,16,10,43,9.30
2010,11,16,10,44,3.90
2010,11,16,10,45,0.70
2010,11,16,10,46,3.00
2010,11,16,10,47,5.10
2010,11,16,10,48,10.10
2010,11,16,10,49,8.30
2010,11,16,10,50,10.60
2010,11,16,10,51,7.00
2010,11,16,10,52,11.00
2010,11,16,10,53,4.00
2010,11,16,10,54,7.30
2010,11,16,10,55,9.70
2010,11,16,10,56,9.90
2010,11,16,10,57,6.50
2010,11,16,10,58,5.20
2010,11,16,10,59,5.30
2010,11,16,11,00,4.40
2010,11,16,11,01,6.50
2010,11,16,11,02,5.70
2010,11,16,11,03,9.50
2010,11,16,11,04,12.60
2010,11,16,11,05,13.10
2010,11,16,11,06,6.90
2010,11,16,11,07,5.70
2010,11,16,11,08,3.20
2010,11,16,11,09,4.30
2010,11,16,11,10,5.30
2010,11,16,11,11,4.70
2010,11,16,11,12,3.90
2010,11,16,11,13,5.60
2010,11,16,11,14,6.20
2010,11,16,11,15,5.70
2010,11,16,11,16,7.30
2010,11,16,11,17,8.00
2010,11,16,11,18,5.70
2010,11,16,11,19,6.80
2010,11,16,11,20,8.10
2010,11,16,11,21,11.20
2010,11,16,11,22,10.70
2010,11,16,11,23,8.00
2010,11,16,11,24,7.40
2010,11,16,11,25,4.80
2010,11,16,11,26,1.50
2010,11,16,11,27,6.40
2010,11,16,11,28,10.10
2010,11,16,11,29,1.60
2010,11,16,11,30,8.80
2010,11,16,11,31,6.70
2010,11,16,11,32,13.40
2010,11,16,11,33,6.60
2010,11,16,11,34,9.70
2010,11,16,11,35,10.60
2010,11,16,11,36,11.30
2010,11,16,11,37,6.40
2010,11,16,11,38,3.60
2010,11,16,11,39,4.50
2010,11,16,11,40,7.60
2010,11,16,11,41,7.50
2010,11,16,11,42,14.70
2010,11,16,11,43,11.30
2010,11,16,11,44,9.30
2010,11,16,11,45,3.10
2010,11,16,11,46,6.60
2010,11,16,11,47,9.70
2010,11,16,11,48,11.10
2010,11,16,11,49,15.30
2010,11,16,11,50,17.40
2010,11,16,11,51,14.20
2010,11,16,11,52,13.70
2010,11,16,11,53,12.90
2010,11,16,11,54,7.00
2010,11,16,11,55,5.90
2010,11,16,11,56,15.40
2010,11,16,11,57,14.40
2010,11,16,11,58,10.50
2010,11,16,11,59,9.20
2010,11,16,12,00,6.10
2010,11,16,12,01,8.70
2010,11,16,12,02,11.60
2010,11,16,12,03,4.80
2010,11,16,12,04,4.70
2010,11,16,12,05,6.30
2010,11,16,12,06,6.20
2010,11,16,12,07,3.00
2010,11,16,12,08,12.30
2010,11,16,12,09,14.60
2010,11,16,12,10,13.50
2010,11,16,12,11,12.30
2010,11,16,12,12,8.60
2010,11,16,12,13,12.60
2010,11,16,12,14,10.00
2010,11,16,12,15,16.50
2010,11,16,12,16,9.20
2010,11,16,12,17,10.30
2010,11,16,12,18,11.00
2010,11,16,12,19,7.40
2010,11,16,12,20,7.10
2010,11,16,12,21,13.10
2010,11,16,12,22,12.20
2010,11,16,12,23,15.30
2010,11,16,12,24,11.10
2010,11,16,12,25,10.00
2010,11,16,12,26,10.10
2010,11,16,12,27,13.40
2010,11,16,12,28,8.30
2010,11,16,12,29,5.60
2010,11,16,12,30,7.10
2010,11,16,12,31,12.10
2010,11,16,12,32,18.20
2010,11,16,12,33,16.50
2010,11,16,12,34,17.60
2010,11,16,12,35,11.40
2010,11,16,12,36,9.20
2010,11,16,12,37,7.40
2010,11,16,12,38,5.60
2010,11,16,12,39,7.50
2010,11,16,12,40,4.10
2010,11,16,12,41,6.60
2010,11,16,12,42,12.60
2010,11,16,12,43,13.30
2010,11,16,12,44,5.50
2010,11,16,12,45,5.80
2010,11,16,12,46,7.60
2010,11,16,12,47,18.10
2010,11,16,12,48,15.60
2010,11,16,12,49,16.50
2010,11,16,12,50,16.40
2010,11,16,12,51,8.10
2010,11,16,12,52,10.80
2010,11,16,12,53,11.30
2010,11,16,12,54,6.40
2010,11,16,12,55,6.40
2010,11,16,12,56,8.70
2010,11,16,12,57,16.00
2010,11,16,12,58,10.10
2010,11,16,12,59,11.00
2010,11,16,13,00,14.00
2010,11,16,13,01,6.70
2010,11,16,13,02,5.20
2010,11,16,13,03,8.00
2010,11,16,13,04,1.40
2010,11,16,13,05,10.50
2010,11,16,13,06,14.80
2010,11,16,13,07,12.60
2010,11,16,13,08,9.20
2010,11,16,13,09,11.40
2010,11,16,13,10,11.70
2010,11,16,13,11,17.60
2010,11,16,13,12,13.80
2010,11,16,13,13,5.90
2010,11,16,13,14,6.50
2010,11,16,13,15,5.50
2010,11,16,13,16,9.30
2010,11,16,13,17,7.70
2010,11,16,13,18,7.60
2010,11,16,13,19,11.80
2010,11,16,13,20,7.50
2010,11,16,13,21,7.20
2010,11,16,13,22,11.00
2010,11,16,13,23,17.50
2010,11,16,13,24,13.20
2010,11,16,13,25,7.80
2010,11,16,13,26,11.60
2010,11,16,13,27,9.30
2010,11,16,13,28,9.00
2010,11,16,13,29,11.70
2010,11,16,13,30,13.60
2010,11,16,13,31,9.20
2010,11,16,13,32,5.40
2010,11,16,13,33,7.40
2010,11,16,13,34,7.70
2010,11,16,13,35,9.60
2010,11,16,13,36,13.20
2010,11,16,13,37,8.00
2010,11,16,13,38,15.20
2010,11,16,13,39,7.50
2010,11,16,13,40,6.60
2010,11,16,13,41,7.50
2010,11,16,13,42,13.10
2010,11,16,13,43,5.90
2010,11,16,13,44,7.00
2010,11,16,13,45,7.30
2010,11,16,13,46,10.90
2010,11,16,13,47,6.30
2010,11,16,13,48,7.50
2010,11,16,13,49,7.60
2010,11,16,13,50,11.40
2010,11,16,13,51,8.90
2010,11,16,13,52,16.10
2010,11,16,13,53,12.30
2010,11,16,13,54,9.70
2010,11,16,13,55,14.30
2010,11,16,13,56,15.90
2010,11,16,13,57,10.10
2010,11,16,13,58,6.10
2010,11,16,13,59,6.60
2010,11,16,14,00,8.50
2010,11,16,14,01,9.70
2010,11,16,14,02,8.40
2010,11,16,14,03,19.10
2010,11,16,14,04,10.90
2010,11,16,14,05,11.90
2010,11,16,14,06,8.00
2010,11,16,14,07,4.90
2010,11,16,14,08,14.50
2010,11,16,14,09,7.60
2010,11,16,14,10,7.00
2010,11,16,14,11,5.20
2010,11,16,14,12,9.00
2010,11,16,14,13,6.00
2010,11,16,14,14,8.00
2010,11,16,14,15,5.30
2010,11,16,14,16,5.30
2010,11,16,14,17,18.70
2010,11,16,14,18,16.60
2010,11,16,14,19,9.60
2010,11,16,14,20,6.00
2010,11,16,14,21,15.20
2010,11,16,14,22,9.90
2010,11,16,14,23,7.80
2010,11,16,14,24,8.60
2010,11,16,14,25,4.70
2010,11,16,14,26,5.60
2010,11,16,14,27,6.70
2010,11,16,14,28,2.50
2010,11,16,14,29,1.50
2010,11,16,14,30,3.10
2010,11,16,14,31,1.80
2010,11,16,14,32,4.80
2010,11,16,14,33,5.40
2010,11,16,14,34,6.10
2010,11,16,14,35,8.60
2010,11,16,14,36,5.80
2010,11,16,14,37,6.60
2010,11,16,14,38,10.00
2010,11,16,14,39,9.30
2010,11,16,14,40,3.00
2010,11,16,14,41,5.10
2010,11,16,14,42,5.10
2010,11,16,14,43,11.90
2010,11,16,14,44,6.70
2010,11,16,14,45,7.90
2010,11,16,14,46,4.80
2010,11,16,14,47,5.20
2010,11,16,14,48,12.20
2010,11,16,14,49,10.10
2010,11,16,14,50,8.20
2010,11,16,14,51,6.80
2010,11,16,14,52,5.50
2010,11,16,14,53,4.40
2010,11,16,14,54,6.30
2010,11,16,14,55,4.20
2010,11,16,14,56,6.20
2010,11,16,14,57,6.80
2010,11,16,14,58,8.70
2010,11,16,14,59,9.00
2010,11,16,15,00,11.30
2010,11,16,15,01,16.30
2010,11,16,15,02,14.30
2010,11,16,15,03,4.70
2010,11,16,15,04,4.90
2010,11,16,15,05,5.90
2010,11,16,15,06,4.80
2010,11,16,15,07,7.20
2010,11,16,15,08,4.90
2010,11,16,15,09,3.10
2010,11,16,15,10,4.10
2010,11,16,15,11,9.90
2010,11,16,15,12,5.30
2010,11,16,15,13,1.50
2010,11,16,15,14,5.30
2010,11,16,15,15,8.70
2010,11,16,15,16,5.10
2010,11,16,15,17,4.90
2010,11,16,15,18,3.90
2010,11,16,15,19,3.70
2010,11,16,15,20,6.90
2010,11,16,15,21,6.00
2010,11,16,15,22,7.60
2010,11,16,15,23,6.60
2010,11,16,15,24,15.00
2010,11,16,15,25,10.90
2010,11,16,15,26,7.70
2010,11,16,15,27,4.70
2010,11,16,15,28,3.10
2010,11,16,15,29,6.90
2010,11,16,15,30,1.40
2010,11,16,15,31,0.10
2010,11,16,15,32,1.40
2010,11,16,15,33,1.10
2010,11,16,15,34,3.40
2010,11,16,15,35,8.30
2010,11,16,15,36,6.10
2010,11,16,15,37,5.30
2010,11,16,15,38,5.70
2010,11,16,15,39,6.20
2010,11,16,15,40,5.80
2010,11,16,15,41,3.10
2010,11,16,15,42,5.20
2010,11,16,15,43,3.70
2010,11,16,15,44,5.60
2010,11,16,15,45,2.40
2010,11,16,15,46,2.10
2010,11,16,15,47,4.60
2010,11,16,15,48,8.60
2010,11,16,15,49,6.20
2010,11,16,15,50,1.40
2010,11,16,15,51,0.80
2010,11,16,15,52,0.50
2010,11,16,15,53,0.60
2010,11,16,15,54,5.50
2010,11,16,15,55,1.00
2010,11,16,15,56,5.50
2010,11,16,15,57,9.60
2010,11,16,15,58,2.40
2010,11,16,15,59,2.40
2010,11,16,16,00,3.90
2010,11,16,16,01,4.70
2010,11,16,16,02,0.10
2010,11,16,16,03,0.90
2010,11,16,16,04,2.70
2010,11,16,16,05,0.60
2010,11,16,16,06,1.20
2010,11,16,16,07,0.50
2010,11,16,16,08,1.80
2010,11,16,16,09,1.10
2010,11,16,16,10,0.50
2010,11,16,16,11,2.90
2010,11,16,16,12,2.40
2010,11,16,16,13,6.30
2010,11,16,16,14,3.00
2010,11,16,16,15,1.40
2010,11,16,16,16,4.80
2010,11,16,16,17,3.20
2010,11,16,16,18,2.20
2010,11,16,16,19,2.40
2010,11,16,16,20,0.10
2010,11,16,16,21,0.60
2010,11,16,16,22,0.70
2010,11,16,16,23,5.40
2010,11,16,16,24,2.40
2010,11,16,16,25,2.50
2010,11,16,16,26,1.20
2010,11,16,16,27,0.30
2010,11,16,16,28,2.00
2010,11,16,16,29,2.80
2010,11,16,16,30,2.70
2010,11,16,16,31,1.40
2010,11,16,16,32,0.40
2010,11,16,16,33,6.10
2010,11,16,16,34,5.70
2010,11,16,16,35,1.40
2010,11,16,16,36,0.20
2010,11,16,16,37,4.70
2010,11,16,16,38,6.00
2010,11,16,16,39,1.10
2010,11,16,16,40,0.90
2010,11,16,16,41,0.60
2010,11,16,16,42,0.20
2010,11,16,16,43,0.40
2010,11,16,16,44,2.80
2010,11,16,16,45,2.10
2010,11,16,16,46,0.30
2010,11,16,16,47,0.00
2010,11,16,16,48,0.30
2010,11,16,16,49,1.20
2010,11,16,16,50,1.90
2010,11,16,16,51,0.60
2010,11,16,16,52,1.40
2010,11,16,16,53,6.90
2010,11,16,16,54,3.90
2010,11,16,16,55,5.70
2010,11,16,16,56,2.40
2010,11,16,16,57,3.30
2010,11,16,16,58,5.80
2010,11,16,16,59,3.00
2010,11,16,17,00,0.70
2010,11,16,17,01,4.60
2010,11,16,17,02,3.10
2010,11,16,17,03,5.50
2010,11,16,17,04,0.80
2010,11,16,17,05,1.10
2010,11,16,17,06,1.80
2010,11,16,17,07,5.30
2010,11,16,17,08,4.90
2010,11,16,17,09,9.30
2010,11,16,17,10,5.50
2010,11,16,17,11,3.00
2010,11,16,17,12,2.10
2010,11,16,17,13,0.00
2010,11,16,17,14,0.00
2010,11,16,17,15,0.10
2010,11,16,17,16,0.90
2010,11,16,17,17,6.10
2010,11,16,17,18,3.10
2010,11,16,17,19,0.80
2010,11,16,17,20,4.50
2010,11,16,17,21,0.60
2010,11,16,17,22,2.10
2010,11,16,17,23,2.10
2010,11,16,17,24,3.60
2010,11,16,17,25,2.10
2010,11,16,17,26,1.40
2010,11,16,17,27,3.90
2010,11,16,17,28,0.20
2010,11,16,17,29,0.10
2010,11,16,17,30,0.10
2010,11,16,17,31,0.00
2010,11,16,17,32,0.20
2010,11,16,17,33,1.50
2010,11,16,17,34,0.30
2010,11,16,17,35,0.40
2010,11,16,17,36,4.30
2010,11,16,17,37,0.30
2010,11,16,17,38,1.90
2010,11,16,17,39,1.10
2010,11,16,17,40,6.00
2010,11,16,17,41,1.90
2010,11,16,17,42,0.00
2010,11,16,17,43,0.30
2010,11,16,17,44,0.00
2010,11,16,17,45,0.60
2010,11,16,17,46,2.70
2010,11,16,17,47,0.70
2010,11,16,17,48,1.20
2010,11,16,17,49,3.80
2010,11,16,17,50,0.00
2010,11,16,17,51,3.50
2010,11,16,17,52,0.10
2010,11,16,17,53,0.00
2010,11,16,17,54,0.00
2010,11,16,17,55,0.00
2010,11,16,17,56,0.00
2010,11,16,17,57,3.90
2010,11,16,17,58,2.50
2010,11,16,17,59,0.10
2010,11,16,18,00,0.00
2010,11,16,18,01,0.20
2010,11,16,18,02,2.00
2010,11,16,18,03,0.10
2010,11,16,18,04,0.00
2010,11,16,18,05,1.00
2010,11,16,18,06,0.10
2010,11,16,18,07,0.10
2010,11,16,18,08,0.20
2010,11,16,18,09,0.90
2010,11,16,18,10,0.10
2010,11,16,18,11,3.50
2010,11,16,18,12,0.00
2010,11,16,18,13,2.90
2010,11,16,18,14,3.10
2010,11,16,18,15,9.10
2010,11,16,18,16,8.00
2010,11,16,18,17,1.90
2010,11,16,18,18,3.40
2010,11,16,18,19,3.60
2010,11,16,18,20,6.40
2010,11,16,18,21,3.70
2010,11,16,18,22,5.10
2010,11,16,18,23,4.20
2010,11,16,18,24,2.80
2010,11,16,18,25,6.40
2010,11,16,18,26,7.40
2010,11,16,18,27,6.40
2010,11,16,18,28,5.40
2010,11,16,18,29,3.80
2010,11,16,18,30,1.50
2010,11,16,18,31,2.20
2010,11,16,18,32,2.50
2010,11,16,18,33,0.10
2010,11,16,18,34,0.70
2010,11,16,18,35,4.80
2010,11,16,18,36,1.10
2010,11,16,18,37,3.40
2010,11,16,18,38,2.30
2010,11,16,18,39,4.10
2010,11,16,18,40,2.30
2010,11,16,18,41,1.90
2010,11,16,18,42,4.60
2010,11,16,18,43,4.90
2010,11,16,18,44,5.80
2010,11,16,18,45,6.90
2010,11,16,18,46,9.40
2010,11,16,18,47,3.70
2010,11,16,18,48,0.90
2010,11,16,18,49,3.90
2010,11,16,18,50,3.10
2010,11,16,18,51,3.10
2010,11,16,18,52,4.50
2010,11,16,18,53,5.20
2010,11,16,18,54,6.10
2010,11,16,18,55,4.20
2010,11,16,18,56,6.60
2010,11,16,18,57,3.50
2010,11,16,18,58,7.30
2010,11,16,18,59,3.80
2010,11,16,19,00,0.60
2010,11,16,19,01,2.20
2010,11,16,19,02,3.90
2010,11,16,19,03,3.90
2010,11,16,19,04,4.80
2010,11,16,19,05,2.00
2010,11,16,19,06,0.50
2010,11,16,19,07,0.20
2010,11,16,19,08,0.00
2010,11,16,19,09,0.00
2010,11,16,19,10,0.00
2010,11,16,19,11,0.00
2010,11,16,19,12,0.00
2010,11,16,19,13,0.00
2010,11,16,19,14,0.00
2010,11,16,19,15,0.00
2010,11,16,19,16,0.00
2010,11,16,19,17,0.10
2010,11,16,19,18,0.20
2010,11,16,19,19,1.40
2010,11,16,19,20,0.80
2010,11,16,19,21,0.20
2010,11,16,19,22,0.20
2010,11,16,19,23,0.30
2010,11,16,19,24,0.00
2010,11,16,19,25,0.00
2010,11,16,19,26,0.00
2010,11,16,19,27,1.40
2010,11,16,19,28,0.10
2010,11,16,19,29,0.20
2010,11,16,19,30,0.20
2010,11,16,19,31,0.00
2010,11,16,19,32,0.00
2010,11,16,19,33,0.00
2010,11,16,19,34,0.00
2010,11,16,19,35,0.00
2010,11,16,19,36,3.10
2010,11,16,19,37,0.10
2010,11,16,19,38,1.40
2010,11,16,19,39,1.70
2010,11,16,19,40,1.30
2010,11,16,19,41,0.60
2010,11,16,19,42,0.80
2010,11,16,19,43,1.40
2010,11,16,19,44,0.30
2010,11,16,19,45,2.70
2010,11,16,19,46,2.00
2010,11,16,19,47,3.60
2010,11,16,19,48,1.90
2010,11,16,19,49,0.50
2010,11,16,19,50,3.90
2010,11,16,19,51,4.00
2010,11,16,19,52,4.40
2010,11,16,19,53,4.70
2010,11,16,19,54,5.60
2010,11,16,19,55,3.60
2010,11,16,19,56,2.80
2010,11,16,19,57,2.30
2010,11,16,19,58,0.40
2010,11,16,19,59,0.10
2010,11,16,20,00,1.10
2010,11,16,20,01,2.70
2010,11,16,20,02,1.90
2010,11,16,20,03,0.50
2010,11,16,20,04,0.00
2010,11,16,20,05,2.20
2010,11,16,20,06,0.60
2010,11,16,20,07,1.00
2010,11,16,20,08,0.50
2010,11,16,20,09,1.10
2010,11,16,20,10,2.40
2010,11,16,20,11,0.50
2010,11,16,20,12,0.50
2010,11,16,20,13,3.40
2010,11,16,20,14,1.80
2010,11,16,20,15,0.00
2010,11,16,20,16,4.90
2010,11,16,20,17,3.90
2010,11,16,20,18,1.40
2010,11,16,20,19,2.40
2010,11,16,20,20,0.80
2010,11,16,20,21,5.80
2010,11,16,20,22,1.70
2010,11,16,20,23,0.80
2010,11,16,20,24,3.60
2010,11,16,20,25,2.20
2010,11,16,20,26,1.40
2010,11,16,20,27,2.60
2010,11,16,20,28,0.50
2010,11,16,20,29,2.30
2010,11,16,20,30,0.40
2010,11,16,20,31,1.00
2010,11,16,20,32,1.40
2010,11,16,20,33,4.00
2010,11,16,20,34,1.60
2010,11,16,20,35,2.80
2010,11,16,20,36,2.60
2010,11,16,20,37,1.20
2010,11,16,20,38,0.90
2010,11,16,20,39,1.80
2010,11,16,20,40,1.40
2010,11,16,20,41,2.00
2010,11,16,20,42,0.50
2010,11,16,20,43,0.00
2010,11,16,20,44,0.00
2010,11,16,20,45,0.00
2010,11,16,20,46,0.10
2010,11,16,20,47,0.30
2010,11,16,20,48,5.30
2010,11,16,20,49,0.40
2010,11,16,20,50,2.10
2010,11,16,20,51,1.50
2010,11,16,20,52,0.00
2010,11,16,20,53,3.10
2010,11,16,20,54,0.60
2010,11,16,20,55,0.60
2010,11,16,20,56,1.50
2010,11,16,20,57,0.40
2010,11,16,20,58,1.70
2010,11,16,20,59,2.80
2010,11,16,21,00,1.60
2010,11,16,21,01,2.20
2010,11,16,21,02,2.70
2010,11,16,21,03,1.50
2010,11,16,21,04,0.90
2010,11,16,21,05,0.30
2010,11,16,21,06,0.50
2010,11,16,21,07,3.00
2010,11,16,21,08,3.00
2010,11,16,21,09,3.30
2010,11,16,21,10,2.60
2010,11,16,21,11,2.60
2010,11,16,21,12,4.30
2010,11,16,21,13,3.70
2010,11,16,21,14,4.90
2010,11,16,21,15,1.90
2010,11,16,21,16,0.00
2010,11,16,21,17,0.00
2010,11,16,21,18,0.00
2010,11,16,21,19,0.00
2010,11,16,21,20,0.00
2010,11,16,21,21,0.00
2010,11,16,21,22,0.10
2010,11,16,21,23,1.80
2010,11,16,21,24,0.20
2010,11,16,21,25,0.00
2010,11,16,21,26,0.00
2010,11,16,21,27,0.00
2010,11,16,21,28,0.00
2010,11,16,21,29,0.00
2010,11,16,21,30,0.20
2010,11,16,21,31,0.20
2010,11,16,21,32,0.40
2010,11,16,21,33,0.20
2010,11,16,21,34,0.00
2010,11,16,21,35,0.00
2010,11,16,21,36,1.90
2010,11,16,21,37,0.60
2010,11,16,21,38,0.10
2010,11,16,21,39,0.00
2010,11,16,21,40,0.00
2010,11,16,21,41,0.00
2010,11,16,21,42,0.00
2010,11,16,21,43,0.00
2010,11,16,21,44,0.00
2010,11,16,21,45,0.10
2010,11,16,21,46,0.20
2010,11,16,21,47,0.00
2010,11,16,21,48,0.00
2010,11,16,21,49,0.00
2010,11,16,21,50,0.00
2010,11,16,21,51,0.00
2010,11,16,21,52,0.00
2010,11,16,21,53,1.30
2010,11,16,21,54,3.10
2010,11,16,21,55,4.40
2010,11,16,21,56,5.20
2010,11,16,21,57,4.80
2010,11,16,21,58,0.30
2010,11,16,21,59,0.60
2010,11,16,22,00,0.30
2010,11,16,22,01,0.00
2010,11,16,22,02,0.00
2010,11,16,22,03,1.70
2010,11,16,22,04,4.00
2010,11,16,22,05,1.50
2010,11,16,22,06,0.30
2010,11,16,22,07,3.30
2010,11,16,22,08,3.70
2010,11,16,22,09,0.00
2010,11,16,22,10,0.30
2010,11,16,22,11,3.10
2010,11,16,22,12,3.00
2010,11,16,22,13,1.50
2010,11,16,22,14,2.90
2010,11,16,22,15,9.80
2010,11,16,22,16,2.90
2010,11,16,22,17,3.80
2010,11,16,22,18,8.20
2010,11,16,22,19,8.80
2010,11,16,22,20,3.00
2010,11,16,22,21,0.10
2010,11,16,22,22,1.40
2010,11,16,22,23,3.90
2010,11,16,22,24,0.20
2010,11,16,22,25,0.80
2010,11,16,22,26,2.60
2010,11,16,22,27,0.20
2010,11,16,22,28,1.00
2010,11,16,22,29,1.20
2010,11,16,22,30,3.20
2010,11,16,22,31,0.90
2010,11,16,22,32,0.50
2010,11,16,22,33,0.20
2010,11,16,22,34,2.00
2010,11,16,22,35,1.10
2010,11,16,22,36,0.10
2010,11,16,22,37,0.10
2010,11,16,22,38,0.00
2010,11,16,22,39,0.10
2010,11,16,22,40,0.00
2010,11,16,22,41,0.00
2010,11,16,22,42,0.00
2010,11,16,22,43,1.00
2010,11,16,22,44,0.00
2010,11,16,22,45,0.00
2010,11,16,22,46,0.20
2010,11,16,22,47,0.50
2010,11,16,22,48,1.20
2010,11,16,22,49,1.00
2010,11,16,22,50,4.50
2010,11,16,22,51,4.00
2010,11,16,22,52,0.00
2010,11,16,22,53,0.00
2010,11,16,22,54,0.00
2010,11,16,22,55,0.60
2010,11,16,22,56,0.10
2010,11,16,22,57,0.00
2010,11,16,22,58,0.20
2010,11,16,22,59,0.00
2010,11,16,23,00,0.00
2010,11,16,23,01,0.50
2010,11,16,23,02,0.30
2010,11,16,23,03,0.70
2010,11,16,23,04,0.00
2010,11,16,23,05,0.00
2010,11,16,23,06,0.00
2010,11,16,23,07,0.80
2010,11,16,23,08,1.20
2010,11,16,23,09,0.00
2010,11,16,23,10,0.00
2010,11,16,23,11,0.00
2010,11,16,23,12,0.00
2010,11,16,23,13,0.00
2010,11,16,23,14,0.20
2010,11,16,23,15,0.80
2010,11,16,23,16,0.10
2010,11,16,23,17,0.30
2010,11,16,23,18,0.20
2010,11,16,23,19,0.00
2010,11,16,23,20,0.90